DW6949 Weather Reports


Display with metric or nautical units.
time (UTC)temp
F
wind
direction
speed
MPH
gust
MPH
rain 1hr
in
rain 24hr
in
rain mn
in
humidity
%
barometer
mb
20260505021546 73 124 6.0 11.0 0.00 0.00 0.00 78 1011.9
20260505020051 73 93 5.0 13.0 0.00 0.00 0.00 77 1011.7
20260505014552 74 105 5.0 14.0 0.00 0.00 0.00 77 1011.8
20260505013051 74 117 5.0 11.0 0.00 0.00 0.00 76 1011.6
20260505011553 74 103 6.0 13.0 0.00 0.00 0.00 75 1011.7
20260505010110 74 68 4.0 10.0 0.00 0.00 0.00 74 1011.6
20260505004553 75 98 5.0 12.0 0.00 0.00 0.00 73 1011.6
20260505003053 75 93 4.0 11.0 0.00 0.00 0.00 73 1011.5
20260505001546 76 90 3.0 8.0 0.00 0.00 0.00 72 1011.3
20260505000049 76 94 5.0 12.0 0.00 0.00 0.00 71 1011.5
20260504234549 77 101 5.0 15.0 0.00 0.00 0.00 70 1011.6
20260504233052 78 106 5.0 12.0 0.00 0.00 0.00 70 1011.8
20260504231549 78 120 4.0 10.0 0.00 0.00 0.00 69 1011.9
20260504230055 77 106 7.0 14.0 0.00 0.00 0.00 70 1012.0
20260504224549 78 69 6.0 13.0 0.00 0.00 0.00 68 1012.2
20260504223059 78 121 6.0 14.0 0.00 0.00 0.00 66 1012.2
20260504221603 79 106 6.0 16.0 0.00 0.00 0.00 66 1012.2
20260504220052 78 91 8.0 15.0 0.00 0.00 0.00 67 1012.6
20260504214551 78 116 4.0 14.0 0.00 0.00 0.00 65 1012.8
20260504213100 79 123 7.0 14.0 0.00 0.00 0.00 63 1012.8
20260504211549 80 116 5.0 13.0 0.00 0.00 0.00 62 1013.1
20260504210046 81 87 5.0 11.0 0.00 0.00 0.00 59 1013.0
20260504204559 80 113 5.0 10.0 0.00 0.00 0.00 61 1013.4
20260504203052 80 82 5.0 12.0 0.00 0.00 0.00 60 1013.3
20260504201546 80 79 2.0 10.0 0.00 0.00 0.00 59 1013.6
20260504200046 81 100 4.0 13.0 0.00 0.00 0.00 58 1013.8
20260504194551 81 113 5.0 14.0 0.00 0.00 0.00 57 1014.1
20260504193048 81 128 5.0 12.0 0.00 0.00 0.00 57 1014.2
20260504191547 81 124 4.0 10.0 0.00 0.00 0.00 59 1014.4
20260504190050 81 134 1.0 10.0 0.00 0.00 0.00 59 1014.7
20260504184547 81 113 6.0 13.0 0.00 0.00 0.00 58 1014.8
20260504183045 79 84 4.0 14.0 0.00 0.00 0.00 58 1015.0
20260504181550 79 129 5.0 14.0 0.00 0.00 0.00 58 1014.9
20260504180052 80 126 3.0 14.0 0.00 0.00 0.00 60 1015.2
20260504174550 80 70 4.0 11.0 0.00 0.00 0.00 59 1015.5
20260504173046 78 103 3.0 14.0 0.00 0.00 0.00 62 1015.7
20260504171554 78 99 3.0 10.0 0.00 0.00 0.00 61 1015.9
20260504081553 60 0 0.0 2.0 0.00 0.00 0.00 77 1017.3
20260504080112 60 127 0.0 1.0 0.00 0.00 0.00 79 1017.5
20260504044553 64 125 1.0 1.0 0.00 0.00 0.00 69 1019.6
20260504043052 64 124 0.0 3.0 0.00 0.00 0.00 68 1019.7
20260504041549 65 0 0.0 3.0 0.00 0.00 0.00 66 1019.8
20260504040113 66 110 1.0 7.0 0.00 0.00 0.00 65 1019.7
20260504034556 66 120 2.0 4.0 0.00 0.00 0.00 65 1019.5
20260504033049 66 122 1.0 3.0 0.00 0.00 0.00 64 1019.7
20260504031551 67 121 1.0 5.0 0.00 0.00 0.00 63 1019.5
20260504030051 67 122 1.0 5.0 0.00 0.00 0.00 62 1019.4
20260504024548 67 124 2.0 6.0 0.00 0.00 0.00 60 1019.1
20260504023059 68 120 2.0 7.0 0.00 0.00 0.00 58 1019.2